TimeCDT,TemperatureF,Dew PointF,Humidity,Sea Level PressureIn,VisibilityMPH,Wind Direction,Wind SpeedMPH,Gust SpeedMPH,PrecipitationIn,Events,Conditions,WindDirDegrees,DateUTC
12:15 AM,53.6,33.8,47,30.06,10.0,Calm,Calm,-,N/A,,Clear,0,2013-04-06 05:15:00
12:35 AM,51.8,33.8,50,30.06,10.0,SE,9.2,-,N/A,,Clear,130,2013-04-06 05:35:00
12:55 AM,55.4,35.6,47,30.06,10.0,ESE,6.9,-,N/A,,Clear,120,2013-04-06 05:55:00
1:15 AM,48.2,30.2,50,30.06,10.0,East,4.6,-,N/A,,Clear,100,2013-04-06 06:15:00
1:35 AM,48.2,30.2,50,30.06,10.0,Calm,Calm,-,N/A,,Clear,0,2013-04-06 06:35:00
1:55 AM,46.4,28.4,50,30.06,10.0,NW,3.5,-,N/A,,Clear,320,2013-04-06 06:55:00
2:15 AM,44.6,28.4,53,30.04,10.0,West,4.6,-,N/A,,Clear,270,2013-04-06 07:15:00
2:35 AM,44.6,28.4,53,30.05,10.0,North,9.2,-,N/A,,Clear,350,2013-04-06 07:35:00
2:55 AM,46.4,30.2,53,30.05,10.0,North,6.9,-,N/A,,Clear,10,2013-04-06 07:55:00
3:15 AM,46.4,30.2,53,30.05,10.0,NNE,5.8,-,N/A,,Clear,20,2013-04-06 08:15:00
3:35 AM,44.6,28.4,53,30.05,10.0,NNW,4.6,-,N/A,,Clear,330,2013-04-06 08:35:00
3:55 AM,42.8,28.4,57,30.05,10.0,NNW,8.1,-,N/A,,Clear,330,2013-04-06 08:55:00
4:15 AM,44.6,30.2,57,30.05,10.0,NNW,9.2,-,N/A,,Clear,330,2013-04-06 09:15:00
4:35 AM,44.6,30.2,57,30.04,10.0,North,5.8,-,N/A,,Clear,350,2013-04-06 09:35:00
4:55 AM,44.6,28.4,53,30.04,10.0,NNE,6.9,-,N/A,,Clear,30,2013-04-06 09:55:00
5:15 AM,42.8,30.2,61,30.04,10.0,NNE,9.2,-,N/A,,Clear,20,2013-04-06 10:15:00
5:35 AM,44.6,28.4,53,30.04,10.0,North,6.9,-,N/A,,Clear,360,2013-04-06 10:35:00
5:55 AM,41.0,26.6,57,30.04,10.0,NNE,6.9,-,N/A,,Clear,20,2013-04-06 10:55:00
6:15 AM,39.2,26.6,61,30.04,10.0,North,8.1,-,N/A,,Clear,350,2013-04-06 11:15:00
6:35 AM,41.0,28.4,61,30.04,10.0,NNE,3.5,-,N/A,,Clear,20,2013-04-06 11:35:00
6:55 AM,39.2,28.4,65,30.04,10.0,NNE,6.9,-,N/A,,Clear,20,2013-04-06 11:55:00
7:15 AM,39.2,26.6,61,30.05,10.0,NE,3.5,-,N/A,,Clear,40,2013-04-06 12:15:00
7:35 AM,39.2,26.6,61,30.06,10.0,North,3.5,-,N/A,,Clear,360,2013-04-06 12:35:00
7:55 AM,39.2,26.6,61,30.06,10.0,NNW,4.6,-,N/A,,Clear,340,2013-04-06 12:55:00
8:15 AM,41.0,26.6,57,30.07,10.0,Calm,Calm,-,N/A,,Clear,0,2013-04-06 13:15:00
8:35 AM,46.4,30.2,53,30.08,10.0,NNE,5.8,-,N/A,,Clear,20,2013-04-06 13:35:00
8:55 AM,53.6,33.8,47,30.08,10.0,East,3.5,-,N/A,,Clear,90,2013-04-06 13:55:00
9:15 AM,57.2,33.8,41,30.08,10.0,Calm,Calm,-,N/A,,Clear,0,2013-04-06 14:15:00
9:35 AM,62.6,32.0,32,30.09,10.0,Calm,Calm,-,N/A,,Clear,0,2013-04-06 14:35:00
9:55 AM,69.8,26.6,20,30.09,10.0,WNW,12.7,-,N/A,,Clear,290,2013-04-06 14:55:00
10:15 AM,71.6,26.6,19,30.09,10.0,West,15.0,-,N/A,,Clear,280,2013-04-06 15:15:00
10:35 AM,71.6,26.6,19,30.10,10.0,West,18.4,-,N/A,,Clear,280,2013-04-06 15:35:00
10:55 AM,71.6,26.6,19,30.10,10.0,WNW,17.3,20.7,N/A,,Clear,300,2013-04-06 15:55:00
11:15 AM,73.4,26.6,18,30.10,10.0,WNW,20.7,26.5,N/A,,Clear,290,2013-04-06 16:15:00
11:35 AM,73.4,26.6,18,30.10,10.0,West,21.9,27.6,N/A,,Clear,280,2013-04-06 16:35:00
11:55 AM,73.4,26.6,18,30.11,10.0,West,18.4,23.0,N/A,,Clear,270,2013-04-06 16:55:00
12:15 PM,75.2,26.6,17,30.11,10.0,WNW,15.0,23.0,N/A,,Clear,300,2013-04-06 17:15:00
12:35 PM,75.2,26.6,17,30.10,10.0,WNW,13.8,24.2,N/A,,Clear,300,2013-04-06 17:35:00
12:55 PM,75.2,24.8,15,30.10,10.0,West,19.6,28.8,N/A,,Clear,280,2013-04-06 17:55:00
1:15 PM,77.0,26.6,16,30.10,10.0,WNW,18.4,26.5,N/A,,Clear,300,2013-04-06 18:15:00
1:35 PM,78.8,26.6,15,30.09,10.0,West,18.4,29.9,N/A,,Clear,280,2013-04-06 18:35:00
1:55 PM,77.0,24.8,14,30.09,10.0,West,15.0,27.6,N/A,,Clear,270,2013-04-06 18:55:00
2:15 PM,78.8,24.8,14,30.08,10.0,West,19.6,24.2,N/A,,Clear,280,2013-04-06 19:15:00
2:35 PM,78.8,24.8,14,30.07,10.0,West,11.5,24.2,N/A,,Clear,260,2013-04-06 19:35:00
2:55 PM,78.8,23.0,13,30.07,10.0,West,17.3,23.0,N/A,,Clear,280,2013-04-06 19:55:00
3:15 PM,78.8,21.2,12,30.05,10.0,WSW,13.8,19.6,N/A,,Clear,250,2013-04-06 20:15:00
3:35 PM,78.8,21.2,12,30.04,10.0,WSW,13.8,19.6,N/A,,Clear,240,2013-04-06 20:35:00
3:55 PM,78.8,21.2,12,30.03,10.0,WNW,16.1,19.6,N/A,,Clear,290,2013-04-06 20:55:00
4:15 PM,80.6,21.2,11,30.02,10.0,SW,15.0,21.9,N/A,,Clear,230,2013-04-06 21:15:00
4:35 PM,78.8,19.4,11,30.02,10.0,WSW,18.4,24.2,N/A,,Clear,250,2013-04-06 21:35:00
4:55 PM,80.6,21.2,11,30.01,10.0,West,10.4,18.4,N/A,,Clear,260,2013-04-06 21:55:00
5:15 PM,80.6,19.4,10,30.00,10.0,West,19.6,29.9,N/A,,Clear,260,2013-04-06 22:15:00
5:35 PM,80.6,19.4,10,30.00,10.0,SW,13.8,31.1,N/A,,Clear,230,2013-04-06 22:35:00
5:55 PM,80.6,19.4,10,29.99,10.0,West,20.7,27.6,N/A,,Clear,270,2013-04-06 22:55:00
6:15 PM,78.8,19.4,11,29.99,10.0,WSW,15.0,23.0,N/A,,Clear,240,2013-04-06 23:15:00
6:35 PM,78.8,19.4,11,29.99,10.0,West,15.0,-,N/A,,Clear,270,2013-04-06 23:35:00
6:55 PM,78.8,17.6,10,29.99,10.0,West,15.0,26.5,N/A,,Clear,260,2013-04-06 23:55:00
7:15 PM,77.0,17.6,11,29.99,10.0,West,17.3,-,N/A,,Clear,270,2013-04-07 00:15:00
7:35 PM,75.2,17.6,11,29.99,10.0,West,17.3,-,N/A,,Clear,260,2013-04-07 00:35:00
7:55 PM,75.2,15.8,11,29.99,10.0,WSW,9.2,-,N/A,,Clear,250,2013-04-07 00:55:00
8:15 PM,69.8,12.2,11,29.99,10.0,West,5.8,-,N/A,,Clear,280,2013-04-07 01:15:00
8:35 PM,68.0,12.2,12,29.99,10.0,West,9.2,-,N/A,,Clear,270,2013-04-07 01:35:00
8:55 PM,64.4,12.2,13,29.99,10.0,West,9.2,-,N/A,,Clear,280,2013-04-07 01:55:00
9:15 PM,60.8,10.4,14,30.00,10.0,WNW,6.9,-,N/A,,Clear,300,2013-04-07 02:15:00
9:35 PM,57.2,10.4,16,30.00,10.0,NW,9.2,-,N/A,,Clear,320,2013-04-07 02:35:00
9:55 PM,55.4,10.4,17,30.00,10.0,NW,8.1,-,N/A,,Clear,320,2013-04-07 02:55:00
10:15 PM,57.2,10.4,16,30.00,10.0,NNW,10.4,-,N/A,,Clear,330,2013-04-07 03:15:00
10:35 PM,51.8,8.6,18,30.00,10.0,North,4.6,-,N/A,,Clear,360,2013-04-07 03:35:00
10:55 PM,51.8,10.4,19,30.02,10.0,SSE,9.2,-,N/A,,Clear,150,2013-04-07 03:55:00
11:15 PM,51.8,10.4,19,30.02,10.0,East,5.8,-,N/A,,Clear,100,2013-04-07 04:15:00
11:35 PM,51.8,10.4,19,30.02,10.0,East,4.6,-,N/A,,Clear,80,2013-04-07 04:35:00
11:55 PM,48.2,8.6,20,30.01,10.0,ENE,3.5,-,N/A,,Clear,60,2013-04-07 04:55:00